iso_date,Year,Hour,Min,DOY,POS_DOY,Lat,Lon,BP,Ts,Ta,has_bp,has_ts,has_ta,BuoyID,Buoy_Type,Buoy_Owner,Logistics,Hemisphere
2022-06-07T16:16:01Z,2022,16,16,158.6778,155.834,-70.6616,-8.2852,1000.3,1.9,-14.1,yes,yes,yes,300534061254930,unknown,unknown,unknown,South
2022-06-07T16:59:57Z,2022,17,0,158.7083,158.7083,-70.6618,-8.2852,1000.7,-1.9,-14.8,yes,yes,yes,300534061254930,unknown,unknown,unknown,South
2022-06-07T18:00:00Z,2022,18,0,158.75,158.75,-70.6618,-8.2852,1000.9,-5.8,-18.0,yes,yes,yes,300534061254930,unknown,unknown,unknown,South
2022-06-07T19:00:02Z,2022,19,0,158.7917,158.7917,-70.6616,-8.2852,1000.8,-8.3,-19.4,yes,yes,yes,300534061254930,unknown,unknown,unknown,South
2022-06-07T19:59:57Z,2022,20,0,158.8333,158.8333,-70.6616,-8.285,1001.1,-10.1,-19.3,yes,yes,yes,300534061254930,unknown,unknown,unknown,South
2022-06-07T21:00:00Z,2022,21,0,158.875,158.875,-70.6616,-8.2852,1001.0,-11.0,-18.1,yes,yes,yes,300534061254930,unknown,unknown,unknown,South
2022-06-07T22:00:02Z,2022,22,0,158.9167,158.9167,-70.6616,-8.2852,1001.0,-11.6,-16.7,yes,yes,yes,300534061254930,unknown,unknown,unknown,South
2022-06-07T23:00:57Z,2022,23,1,158.959,158.959,-70.6616,-8.2852,1001.2,-12.0,-15.6,yes,yes,yes,300534061254930,unknown,unknown,unknown,South
2022-06-08T00:00:00Z,2022,0,0,159.0,159.0,-70.6616,-8.2852,1001.3,-12.3,-14.4,yes,yes,yes,300534061254930,unknown,unknown,unknown,South
2022-06-08T01:00:02Z,2022,1,0,159.0417,159.0417,-70.6618,-8.2852,1001.5,-12.5,-14.0,yes,yes,yes,300534061254930,unknown,unknown,unknown,South
2022-06-08T01:59:57Z,2022,2,0,159.0833,159.0833,-70.6618,-8.2852,1001.1,-12.9,-14.0,yes,yes,yes,300534061254930,unknown,unknown,unknown,South
2022-06-08T03:00:00Z,2022,3,0,159.125,159.125,-70.6618,-8.2852,1001.3,-13.2,-13.6,yes,yes,yes,300534061254930,unknown,unknown,unknown,South
2022-06-08T04:00:02Z,2022,4,0,159.1667,159.1667,-70.6616,-8.2852,1001.2,-13.4,-13.8,yes,yes,yes,300534061254930,unknown,unknown,unknown,South
2022-06-08T04:59:57Z,2022,5,0,159.2083,159.2083,-70.6618,-8.2852,1001.2,-13.6,-14.1,yes,yes,yes,300534061254930,unknown,unknown,unknown,South
2022-06-08T06:00:00Z,2022,6,0,159.25,159.25,-70.6616,-8.2852,1001.0,-13.8,-13.6,yes,yes,yes,300534061254930,unknown,unknown,unknown,South
2022-06-08T07:00:02Z,2022,7,0,159.2917,159.2917,-70.6618,-8.2852,1001.4,-13.9,-13.1,yes,yes,yes,300534061254930,unknown,unknown,unknown,South
2022-06-08T07:59:57Z,2022,8,0,159.3333,159.3333,-70.6618,-8.2852,1001.5,-13.9,-12.8,yes,yes,yes,300534061254930,unknown,unknown,unknown,South
2022-06-08T09:00:00Z,2022,9,0,159.375,159.375,-70.6616,-8.2852,1001.2,-13.9,-12.3,yes,yes,yes,300534061254930,unknown,unknown,unknown,South
2022-06-08T10:00:02Z,2022,10,0,159.4167,159.4167,-70.6618,-8.2852,1001.2,-13.9,-12.1,yes,yes,yes,300534061254930,unknown,unknown,unknown,South
2022-06-08T10:59:57Z,2022,11,0,159.4583,159.4583,-70.6616,-8.285,1001.1,-13.9,-11.1,yes,yes,yes,300534061254930,unknown,unknown,unknown,South
2022-06-08T12:00:00Z,2022,12,0,159.5,159.5,-70.6616,-8.285,1001.1,-13.7,-10.3,yes,yes,yes,300534061254930,unknown,unknown,unknown,South
2022-06-08T13:00:02Z,2022,13,0,159.5417,159.5417,-70.6616,-8.2852,1001.2,-13.6,-9.6,yes,yes,yes,300534061254930,unknown,unknown,unknown,South
2022-06-08T13:59:57Z,2022,14,0,159.5833,159.5833,-70.6616,-8.2852,1001.3,-13.5,-9.0,yes,yes,yes,300534061254930,unknown,unknown,unknown,South
2022-06-08T15:00:00Z,2022,15,0,159.625,159.625,-70.6616,-8.2852,1001.4,-13.4,-9.1,yes,yes,yes,300534061254930,unknown,unknown,unknown,South
2022-06-08T16:00:02Z,2022,16,0,159.6667,159.6667,-70.6616,-8.2852,1001.9,-13.4,-9.3,yes,yes,yes,300534061254930,unknown,unknown,unknown,South
2022-06-08T16:59:57Z,2022,17,0,159.7083,159.7083,-70.6616,-8.2852,1002.5,-13.3,-9.2,yes,yes,yes,300534061254930,unknown,unknown,unknown,South
2022-06-08T18:00:00Z,2022,18,0,159.75,159.75,-70.6616,-8.285,1003.5,-13.2,-9.3,yes,yes,yes,300534061254930,unknown,unknown,unknown,South
2022-06-08T19:00:02Z,2022,19,0,159.7917,159.7917,-70.6616,-8.2852,1004.3,-13.2,-9.2,yes,yes,yes,300534061254930,unknown,unknown,unknown,South
2022-06-08T19:59:57Z,2022,20,0,159.8333,159.8333,-70.6616,-8.2852,1005.1,-13.2,-8.7,yes,yes,yes,300534061254930,unknown,unknown,unknown,South
2022-06-08T21:00:00Z,2022,21,0,159.875,159.875,-70.6616,-8.2852,1005.5,-13.1,-8.3,yes,yes,yes,300534061254930,unknown,unknown,unknown,South
2022-06-08T22:00:02Z,2022,22,0,159.9167,159.9167,-70.6616,-8.2852,1006.3,-13.1,-9.8,yes,yes,yes,300534061254930,unknown,unknown,unknown,South
2022-06-08T22:59:57Z,2022,23,0,159.9583,159.9583,-70.6616,-8.2852,1006.9,-13.1,-9.4,yes,yes,yes,300534061254930,unknown,unknown,unknown,South
2022-06-09T00:00:00Z,2022,0,0,160.0,160.0,-70.6616,-8.2852,1007.3,-13.0,-9.5,yes,yes,yes,300534061254930,unknown,unknown,unknown,South
2022-06-09T01:00:02Z,2022,1,0,160.0417,160.0417,-70.6616,-8.2852,1007.7,-13.0,-8.9,yes,yes,yes,300534061254930,unknown,unknown,unknown,South
2022-06-09T01:59:57Z,2022,2,0,160.0833,160.0833,-70.6618,-8.2852,1008.1,-13.0,-9.7,yes,yes,yes,300534061254930,unknown,unknown,unknown,South
2022-06-09T03:00:00Z,2022,3,0,160.125,160.125,-70.6618,-8.2852,1007.8,-13.0,-10.0,yes,yes,yes,300534061254930,unknown,unknown,unknown,South
2022-06-09T04:00:02Z,2022,4,0,160.1667,160.1667,-70.6616,-8.2852,1007.7,-13.0,-9.6,yes,yes,yes,300534061254930,unknown,unknown,unknown,South
2022-06-09T04:59:57Z,2022,5,0,160.2083,160.2083,-70.6616,-8.2852,1007.5,-13.1,-10.3,yes,yes,yes,300534061254930,unknown,unknown,unknown,South
2022-06-09T06:00:00Z,2022,6,0,160.25,160.25,-70.6616,-8.285,1007.7,-13.1,-11.8,yes,yes,yes,300534061254930,unknown,unknown,unknown,South
2022-06-09T07:00:02Z,2022,7,0,160.2917,160.2917,-70.6616,-8.285,1007.4,-13.3,-12.8,yes,yes,yes,300534061254930,unknown,unknown,unknown,South
2022-06-09T07:59:57Z,2022,8,0,160.3333,160.3333,-70.6616,-8.2852,1007.2,-13.4,-13.9,yes,yes,yes,300534061254930,unknown,unknown,unknown,South
2022-06-09T09:00:00Z,2022,9,0,160.375,160.375,-70.6616,-8.2852,1006.4,-13.7,-15.8,yes,yes,yes,300534061254930,unknown,unknown,unknown,South
2022-06-09T10:00:02Z,2022,10,0,160.4167,160.4167,-70.6616,-8.285,1006.0,-14.0,-16.4,yes,yes,yes,300534061254930,unknown,unknown,unknown,South
2022-06-09T10:59:57Z,2022,11,0,160.4583,160.4583,-70.6616,-8.2852,1006.0,-14.3,-17.4,yes,yes,yes,300534061254930,unknown,unknown,unknown,South
2022-06-09T12:00:00Z,2022,12,0,160.5,160.5,-70.6618,-8.2852,1005.6,-14.6,-17.2,yes,yes,yes,300534061254930,unknown,unknown,unknown,South
2022-06-09T13:00:02Z,2022,13,0,160.5417,160.5417,-70.6616,-8.2852,1005.3,-14.8,-17.8,yes,yes,yes,300534061254930,unknown,unknown,unknown,South
2022-06-09T13:59:57Z,2022,14,0,160.5833,160.5833,-70.6616,-8.2852,1004.7,-15.1,-18.7,yes,yes,yes,300534061254930,unknown,unknown,unknown,South
2022-06-09T15:00:00Z,2022,15,0,160.625,160.625,-70.6616,-8.285,1003.9,-15.3,-18.5,yes,yes,yes,300534061254930,unknown,unknown,unknown,South
2022-06-09T16:00:02Z,2022,16,0,160.6667,160.6667,-70.6616,-8.2852,1003.8,-15.6,-18.2,yes,yes,yes,300534061254930,unknown,unknown,unknown,South
2022-06-09T16:59:57Z,2022,17,0,160.7083,160.7083,-70.6616,-8.285,1003.6,-15.8,-18.2,yes,yes,yes,300534061254930,unknown,unknown,unknown,South
2022-06-09T18:00:00Z,2022,18,0,160.75,160.75,-70.6616,-8.2852,1003.3,-16.0,-19.1,yes,yes,yes,300534061254930,unknown,unknown,unknown,South
2022-06-09T19:00:02Z,2022,19,0,160.7917,160.7917,-70.6618,-8.2852,1002.7,-16.2,-17.9,yes,yes,yes,300534061254930,unknown,unknown,unknown,South
2022-06-09T19:59:57Z,2022,20,0,160.8333,160.8333,-70.6616,-8.2852,1002.3,-16.3,-17.8,yes,yes,yes,300534061254930,unknown,unknown,unknown,South
2022-06-09T21:00:00Z,2022,21,0,160.875,160.875,-70.6616,-8.2852,1001.7,-16.3,-16.9,yes,yes,yes,300534061254930,unknown,unknown,unknown,South
2022-06-09T22:00:02Z,2022,22,0,160.9167,160.9167,-70.6616,-8.285,1001.1,-16.3,-17.4,yes,yes,yes,300534061254930,unknown,unknown,unknown,South
2022-06-09T22:59:57Z,2022,23,0,160.9583,160.9583,-70.6616,-8.2852,1000.5,-16.3,-17.5,yes,yes,yes,300534061254930,unknown,unknown,unknown,South
2022-06-10T00:00:00Z,2022,0,0,161.0,161.0,-70.6616,-8.2852,1000.0,-16.4,-15.7,yes,yes,yes,300534061254930,unknown,unknown,unknown,South
2022-06-10T01:00:02Z,2022,1,0,161.0417,161.0417,-70.6616,-8.2852,999.0,-16.3,-13.7,yes,yes,yes,300534061254930,unknown,unknown,unknown,South
2022-06-10T01:59:57Z,2022,2,0,161.0833,161.0833,-70.6616,-8.2852,999.0,-16.2,-15.4,yes,yes,yes,300534061254930,unknown,unknown,unknown,South
2022-06-10T03:00:00Z,2022,3,0,161.125,161.125,-70.6616,-8.2852,997.8,-16.2,-14.3,yes,yes,yes,300534061254930,unknown,unknown,unknown,South
2022-06-10T04:00:02Z,2022,4,0,161.1667,161.1667,-70.6616,-8.2852,997.4,-16.1,-15.5,yes,yes,yes,300534061254930,unknown,unknown,unknown,South
2022-06-10T04:59:57Z,2022,5,0,161.2083,161.2083,-70.6616,-8.2852,996.9,-16.3,-17.8,yes,yes,yes,300534061254930,unknown,unknown,unknown,South
2022-06-10T06:00:00Z,2022,6,0,161.25,161.25,-70.6616,-8.2852,996.4,-16.4,-14.8,yes,yes,yes,300534061254930,unknown,unknown,unknown,South
2022-06-10T07:02:55Z,2022,7,3,161.2937,161.2937,-70.6616,-8.2852,995.9,-16.3,-15.7,yes,yes,yes,300534061254930,unknown,unknown,unknown,South
2022-06-10T07:59:57Z,2022,8,0,161.3333,161.3333,-70.6618,-8.2852,995.4,-16.3,-16.9,yes,yes,yes,300534061254930,unknown,unknown,unknown,South
2022-06-10T09:00:00Z,2022,9,0,161.375,161.375,-70.6616,-8.2852,995.9,-16.6,-19.7,yes,yes,yes,300534061254930,unknown,unknown,unknown,South
2022-06-10T10:00:02Z,2022,10,0,161.4167,161.4167,-70.6616,-8.2852,995.4,-16.6,-18.1,yes,yes,yes,300534061254930,unknown,unknown,unknown,South
2022-06-10T10:59:57Z,2022,11,0,161.4583,161.4583,-70.6616,-8.2852,995.5,-16.8,-17.1,yes,yes,yes,300534061254930,unknown,unknown,unknown,South
2022-06-10T12:00:00Z,2022,12,0,161.5,161.5,-70.6616,-8.2852,995.4,-17.1,-16.9,yes,yes,yes,300534061254930,unknown,unknown,unknown,South
2022-06-10T13:00:02Z,2022,13,0,161.5417,161.5417,-70.6618,-8.2852,995.3,-17.2,-16.8,yes,yes,yes,300534061254930,unknown,unknown,unknown,South
2022-06-10T13:59:57Z,2022,14,0,161.5833,161.5833,-70.6616,-8.2852,995.0,-17.4,-19.0,yes,yes,yes,300534061254930,unknown,unknown,unknown,South
2022-06-10T15:00:00Z,2022,15,0,161.625,161.625,-70.6616,-8.2852,995.1,-17.8,-21.6,yes,yes,yes,300534061254930,unknown,unknown,unknown,South
2022-06-10T16:00:02Z,2022,16,0,161.6667,161.6667,-70.6616,-8.2852,995.4,-18.2,-20.8,yes,yes,yes,300534061254930,unknown,unknown,unknown,South
2022-06-10T16:59:57Z,2022,17,0,161.7083,161.7083,-70.6618,-8.2852,996.0,-18.4,-20.3,yes,yes,yes,300534061254930,unknown,unknown,unknown,South
2022-06-10T18:00:00Z,2022,18,0,161.75,161.75,-70.6616,-8.2852,996.1,-18.6,-19.5,yes,yes,yes,300534061254930,unknown,unknown,unknown,South
2022-06-10T19:00:02Z,2022,19,0,161.7917,161.7917,-70.6616,-8.285,996.1,-19.0,-25.4,yes,yes,yes,300534061254930,unknown,unknown,unknown,South
2022-06-10T19:59:57Z,2022,20,0,161.8333,161.8333,-70.6618,-8.2852,996.5,-19.8,-26.6,yes,yes,yes,300534061254930,unknown,unknown,unknown,South
2022-06-10T21:00:00Z,2022,21,0,161.875,161.875,-70.6616,-8.2852,996.5,-20.3,-26.2,yes,yes,yes,300534061254930,unknown,unknown,unknown,South
2022-06-10T22:00:02Z,2022,22,0,161.9167,161.9167,-70.6618,-8.2852,996.7,-20.7,-26.1,yes,yes,yes,300534061254930,unknown,unknown,unknown,South
2022-06-10T22:59:57Z,2022,23,0,161.9583,161.9583,-70.6618,-8.285,996.6,-21.0,-27.2,yes,yes,yes,300534061254930,unknown,unknown,unknown,South
2022-06-11T00:00:00Z,2022,0,0,162.0,162.0,-70.6616,-8.2852,997.0,-21.4,-27.2,yes,yes,yes,300534061254930,unknown,unknown,unknown,South
2022-06-11T01:00:02Z,2022,1,0,162.0417,162.0417,-70.6616,-8.2852,996.9,-21.8,-27.4,yes,yes,yes,300534061254930,unknown,unknown,unknown,South
2022-06-11T01:59:57Z,2022,2,0,162.0833,162.0833,-70.6616,-8.285,997.0,-22.2,-28.3,yes,yes,yes,300534061254930,unknown,unknown,unknown,South
2022-06-11T03:00:00Z,2022,3,0,162.125,162.125,-70.6616,-8.2852,997.4,-22.4,-27.2,yes,yes,yes,300534061254930,unknown,unknown,unknown,South
2022-06-11T04:00:02Z,2022,4,0,162.1667,162.1667,-70.6616,-8.285,997.4,-22.5,-26.7,yes,yes,yes,300534061254930,unknown,unknown,unknown,South
2022-06-11T04:59:57Z,2022,5,0,162.2083,162.2083,-70.6616,-8.2852,997.2,-22.5,-26.4,yes,yes,yes,300534061254930,unknown,unknown,unknown,South
2022-06-11T06:00:00Z,2022,6,0,162.25,162.25,-70.6616,-8.2852,997.4,-22.4,-23.9,yes,yes,yes,300534061254930,unknown,unknown,unknown,South
2022-06-11T07:00:02Z,2022,7,0,162.2917,162.2917,-70.6616,-8.2852,997.4,-21.9,-22.2,yes,yes,yes,300534061254930,unknown,unknown,unknown,South
2022-06-11T07:59:57Z,2022,8,0,162.3333,162.3333,-70.6616,-8.2852,997.6,-21.7,-22.9,yes,yes,yes,300534061254930,unknown,unknown,unknown,South
2022-06-11T09:00:00Z,2022,9,0,162.375,162.375,-70.6616,-8.2852,997.5,-21.7,-23.0,yes,yes,yes,300534061254930,unknown,unknown,unknown,South
2022-06-11T10:00:02Z,2022,10,0,162.4167,162.4167,-70.6616,-8.2852,998.0,-21.6,-23.9,yes,yes,yes,300534061254930,unknown,unknown,unknown,South
2022-06-11T10:59:57Z,2022,11,0,162.4583,162.4583,-70.6616,-8.2852,998.1,-21.7,-22.9,yes,yes,yes,300534061254930,unknown,unknown,unknown,South
2022-06-29T15:01:00Z,2022,15,1,180.6257,177.7819,-70.5912,-7.8248,999.6,-18.1,-24.1,yes,yes,yes,300534061254930,unknown,unknown,unknown,South
2022-06-29T16:00:02Z,2022,16,0,180.6667,180.6667,-70.5914,-7.8248,999.5,-15.5,-23.7,yes,yes,yes,300534061254930,unknown,unknown,unknown,South
2022-06-29T16:59:57Z,2022,17,0,180.7083,180.7083,-70.5912,-7.8248,999.9,-13.8,-24.7,yes,yes,yes,300534061254930,unknown,unknown,unknown,South
2022-06-29T18:00:00Z,2022,18,0,180.75,180.75,-70.5912,-7.8248,999.6,-12.7,-23.2,yes,yes,yes,300534061254930,unknown,unknown,unknown,South
2022-06-29T19:00:02Z,2022,19,0,180.7917,180.7917,-70.5912,-7.8248,999.8,-12.4,-22.9,yes,yes,yes,300534061254930,unknown,unknown,unknown,South
2022-06-29T19:59:57Z,2022,20,0,180.8333,180.8333,-70.5912,-7.8248,999.9,-12.1,-22.2,yes,yes,yes,300534061254930,unknown,unknown,unknown,South
2022-06-29T21:00:00Z,2022,21,0,180.875,180.875,-70.5912,-7.8248,1000.1,-11.8,-21.3,yes,yes,yes,300534061254930,unknown,unknown,unknown,South
2022-06-29T22:00:02Z,2022,22,0,180.9167,180.9167,-70.5912,-7.8248,1000.5,-11.5,-21.8,yes,yes,yes,300534061254930,unknown,unknown,unknown,South
2022-06-29T22:59:57Z,2022,23,0,180.9583,180.9583,-70.5912,-7.8248,1000.4,-11.4,-21.5,yes,yes,yes,300534061254930,unknown,unknown,unknown,South
2022-06-30T00:00:00Z,2022,0,0,181.0,181.0,-70.5912,-7.8248,1000.6,-11.2,-21.8,yes,yes,yes,300534061254930,unknown,unknown,unknown,South
2022-06-30T01:00:02Z,2022,1,0,181.0417,181.0417,-70.5912,-7.8248,1000.4,-11.1,-21.6,yes,yes,yes,300534061254930,unknown,unknown,unknown,South
2022-06-30T01:59:57Z,2022,2,0,181.0833,181.0833,-70.5912,-7.8248,1000.3,-11.0,-20.8,yes,yes,yes,300534061254930,unknown,unknown,unknown,South
2022-06-30T03:00:00Z,2022,3,0,181.125,181.125,-70.5912,-7.8248,1000.3,-10.8,-20.4,yes,yes,yes,300534061254930,unknown,unknown,unknown,South
2022-06-30T04:00:02Z,2022,4,0,181.1667,181.1667,-70.5912,-7.8248,1000.3,-10.7,-20.0,yes,yes,yes,300534061254930,unknown,unknown,unknown,South
2022-06-30T04:59:57Z,2022,5,0,181.2083,181.2083,-70.5912,-7.8248,1000.2,-10.6,-20.2,yes,yes,yes,300534061254930,unknown,unknown,unknown,South
2022-06-30T06:00:00Z,2022,6,0,181.25,181.25,-70.5912,-7.8248,1000.1,-10.6,-20.4,yes,yes,yes,300534061254930,unknown,unknown,unknown,South
2022-06-30T07:00:02Z,2022,7,0,181.2917,181.2917,-70.5912,-7.8248,1000.3,-10.5,-20.9,yes,yes,yes,300534061254930,unknown,unknown,unknown,South
2022-06-30T07:59:57Z,2022,8,0,181.3333,181.3333,-70.5912,-7.8248,1000.7,-10.5,-21.5,yes,yes,yes,300534061254930,unknown,unknown,unknown,South
2022-06-30T09:00:00Z,2022,9,0,181.375,181.375,-70.5912,-7.8248,1000.7,-10.5,-22.4,yes,yes,yes,300534061254930,unknown,unknown,unknown,South
2022-06-30T10:00:02Z,2022,10,0,181.4167,181.4167,-70.5912,-7.8248,1000.5,-10.6,-22.7,yes,yes,yes,300534061254930,unknown,unknown,unknown,South
2022-06-30T10:59:57Z,2022,11,0,181.4583,181.4583,-70.5914,-7.8248,1000.7,-10.6,-23.0,yes,yes,yes,300534061254930,unknown,unknown,unknown,South
2022-06-30T12:00:00Z,2022,12,0,181.5,181.5,-70.5912,-7.8248,1000.9,-10.6,-23.3,yes,yes,yes,300534061254930,unknown,unknown,unknown,South
2022-06-30T13:00:02Z,2022,13,0,181.5417,181.5417,-70.5912,-7.8248,1000.9,-10.6,-24.6,yes,yes,yes,300534061254930,unknown,unknown,unknown,South
2022-06-30T13:59:57Z,2022,14,0,181.5833,181.5833,-70.5912,-7.8252,1000.8,-10.5,-25.0,yes,yes,yes,300534061254930,unknown,unknown,unknown,South
2022-06-30T15:00:00Z,2022,15,0,181.625,181.625,-70.5912,-7.8248,1000.9,-10.5,-23.8,yes,yes,yes,300534061254930,unknown,unknown,unknown,South
2022-06-30T16:00:02Z,2022,16,0,181.6667,181.6667,-70.5914,-7.8248,1000.8,-10.6,-24.0,yes,yes,yes,300534061254930,unknown,unknown,unknown,South
2022-06-30T16:59:57Z,2022,17,0,181.7083,181.7083,-70.5912,-7.8248,1000.7,-10.6,-25.1,yes,yes,yes,300534061254930,unknown,unknown,unknown,South
2022-06-30T18:00:00Z,2022,18,0,181.75,181.75,-70.5912,-7.8248,1000.9,-10.6,-25.1,yes,yes,yes,300534061254930,unknown,unknown,unknown,South
2022-06-30T19:00:02Z,2022,19,0,181.7917,181.7917,-70.5912,-7.8248,1000.4,-10.8,-26.8,yes,yes,yes,300534061254930,unknown,unknown,unknown,South
2022-06-30T19:59:57Z,2022,20,0,181.8333,181.8333,-70.5914,-7.8248,1000.3,-10.9,-27.0,yes,yes,yes,300534061254930,unknown,unknown,unknown,South
2022-06-30T21:00:00Z,2022,21,0,181.875,181.875,-70.5912,-7.8248,1000.1,-11.0,-27.5,yes,yes,yes,300534061254930,unknown,unknown,unknown,South
2022-06-30T22:00:02Z,2022,22,0,181.9167,181.9167,-70.5912,-7.8248,1000.1,-11.1,-27.4,yes,yes,yes,300534061254930,unknown,unknown,unknown,South
2022-06-30T22:59:57Z,2022,23,0,181.9583,181.9583,-70.5912,-7.8248,999.4,-11.3,-28.2,yes,yes,yes,300534061254930,unknown,unknown,unknown,South
2022-07-01T00:00:00Z,2022,0,0,182.0,182.0,-70.5912,-7.8248,999.0,-11.3,-28.9,yes,yes,yes,300534061254930,unknown,unknown,unknown,South
2022-07-01T01:00:02Z,2022,1,0,182.0417,182.0417,-70.5914,-7.8248,998.8,-11.5,-29.0,yes,yes,yes,300534061254930,unknown,unknown,unknown,South
2022-07-01T01:59:57Z,2022,2,0,182.0833,182.0833,-70.5912,-7.8248,998.5,-11.6,-28.8,yes,yes,yes,300534061254930,unknown,unknown,unknown,South
2022-07-01T03:00:00Z,2022,3,0,182.125,182.125,-70.5912,-7.8248,997.7,-11.7,-29.2,yes,yes,yes,300534061254930,unknown,unknown,unknown,South
2022-07-01T04:00:02Z,2022,4,0,182.1667,182.1667,-70.5912,-7.8248,997.1,-11.8,-28.7,yes,yes,yes,300534061254930,unknown,unknown,unknown,South
2022-07-01T04:59:57Z,2022,5,0,182.2083,182.2083,-70.5912,-7.8248,996.5,-11.8,-28.6,yes,yes,yes,300534061254930,unknown,unknown,unknown,South
2022-07-01T06:00:00Z,2022,6,0,182.25,182.25,-70.5912,-7.8248,996.4,-11.8,-27.2,yes,yes,yes,300534061254930,unknown,unknown,unknown,South
2022-07-01T07:00:02Z,2022,7,0,182.2917,182.2917,-70.5912,-7.8248,995.9,-11.8,-27.9,yes,yes,yes,300534061254930,unknown,unknown,unknown,South
2022-07-01T07:59:57Z,2022,8,0,182.3333,182.3333,-70.5912,-7.8248,995.4,-11.8,-27.8,yes,yes,yes,300534061254930,unknown,unknown,unknown,South
2022-07-01T09:00:00Z,2022,9,0,182.375,182.375,-70.5912,-7.8248,995.0,-11.8,-27.6,yes,yes,yes,300534061254930,unknown,unknown,unknown,South
2022-07-01T10:00:02Z,2022,10,0,182.4167,182.4167,-70.5912,-7.8248,994.1,-12.0,-28.9,yes,yes,yes,300534061254930,unknown,unknown,unknown,South
2022-07-01T10:59:57Z,2022,11,0,182.4583,182.4583,-70.5914,-7.825,994.1,-12.0,-28.9,yes,yes,yes,300534061254930,unknown,unknown,unknown,South
2022-07-01T12:00:00Z,2022,12,0,182.5,182.5,-70.5912,-7.8248,993.6,-12.1,-28.6,yes,yes,yes,300534061254930,unknown,unknown,unknown,South
2022-07-01T13:00:02Z,2022,13,0,182.5417,182.5417,-70.5914,-7.8248,993.3,-12.2,-29.9,yes,yes,yes,300534061254930,unknown,unknown,unknown,South
2022-07-01T13:59:57Z,2022,14,0,182.5833,182.5833,-70.5912,-7.8248,993.0,-12.3,-30.4,yes,yes,yes,300534061254930,unknown,unknown,unknown,South
2022-07-01T15:00:00Z,2022,15,0,182.625,182.625,-70.5912,-7.8248,992.8,-12.4,-31.0,yes,yes,yes,300534061254930,unknown,unknown,unknown,South
2022-07-01T16:00:02Z,2022,16,0,182.6667,182.6667,-70.5912,-7.8248,992.3,-12.4,-31.0,yes,yes,yes,300534061254930,unknown,unknown,unknown,South
2022-07-01T16:59:57Z,2022,17,0,182.7083,182.7083,-70.5912,-7.8248,992.0,-12.6,-31.9,yes,yes,yes,300534061254930,unknown,unknown,unknown,South
2022-07-01T18:00:00Z,2022,18,0,182.75,182.75,-70.5912,-7.8248,991.5,-12.6,-31.2,yes,yes,yes,300534061254930,unknown,unknown,unknown,South
2022-07-01T19:00:02Z,2022,19,0,182.7917,182.7917,-70.5912,-7.8248,991.5,-12.5,-31.0,yes,yes,yes,300534061254930,unknown,unknown,unknown,South
2022-07-01T19:59:57Z,2022,20,0,182.8333,182.8333,-70.5912,-7.8248,991.4,-12.5,-30.6,yes,yes,yes,300534061254930,unknown,unknown,unknown,South
2022-07-01T21:00:00Z,2022,21,0,182.875,182.875,-70.5912,-7.8248,990.8,-12.6,-30.6,yes,yes,yes,300534061254930,unknown,unknown,unknown,South
2022-07-01T22:00:02Z,2022,22,0,182.9167,182.9167,-70.5914,-7.8248,990.8,-12.6,-30.3,yes,yes,yes,300534061254930,unknown,unknown,unknown,South
2022-07-01T22:59:57Z,2022,23,0,182.9583,182.9583,-70.5912,-7.8248,990.6,-12.6,-29.7,yes,yes,yes,300534061254930,unknown,unknown,unknown,South
2022-07-02T00:00:00Z,2022,0,0,183.0,183.0,-70.5912,-7.8248,990.2,-12.7,-28.6,yes,yes,yes,300534061254930,unknown,unknown,unknown,South
2022-07-02T01:00:02Z,2022,1,0,183.0417,183.0417,-70.5912,-7.8248,990.1,-12.6,-28.5,yes,yes,yes,300534061254930,unknown,unknown,unknown,South
2022-07-02T01:59:57Z,2022,2,0,183.0833,183.0833,-70.5912,-7.8248,989.4,-12.7,-27.7,yes,yes,yes,300534061254930,unknown,unknown,unknown,South
2022-07-02T03:00:00Z,2022,3,0,183.125,183.125,-70.5912,-7.8248,988.8,-12.7,-27.4,yes,yes,yes,300534061254930,unknown,unknown,unknown,South
2022-07-02T04:00:02Z,2022,4,0,183.1667,183.1667,-70.5912,-7.8248,987.8,-12.8,-28.0,yes,yes,yes,300534061254930,unknown,unknown,unknown,South
2022-07-02T04:59:57Z,2022,5,0,183.2083,183.2083,-70.5912,-7.8248,987.2,-12.8,-27.6,yes,yes,yes,300534061254930,unknown,unknown,unknown,South
2022-07-02T06:00:00Z,2022,6,0,183.25,183.25,-70.5912,-7.8248,986.6,-12.9,-28.4,yes,yes,yes,300534061254930,unknown,unknown,unknown,South
2022-07-02T07:00:02Z,2022,7,0,183.2917,183.2917,-70.5912,-7.8248,986.0,-13.1,-28.9,yes,yes,yes,300534061254930,unknown,unknown,unknown,South
2022-07-02T07:59:57Z,2022,8,0,183.3333,183.3333,-70.5912,-7.8248,985.7,-13.0,-27.6,yes,yes,yes,300534061254930,unknown,unknown,unknown,South
2022-07-02T09:00:00Z,2022,9,0,183.375,183.375,-70.5912,-7.8248,984.8,-13.0,-27.5,yes,yes,yes,300534061254930,unknown,unknown,unknown,South
2022-07-02T10:00:02Z,2022,10,0,183.4167,183.4167,-70.5912,-7.8248,984.4,-13.0,-28.2,yes,yes,yes,300534061254930,unknown,unknown,unknown,South
2022-07-02T10:59:57Z,2022,11,0,183.4583,183.4583,-70.5914,-7.8244,984.0,-13.0,-27.7,yes,yes,yes,300534061254930,unknown,unknown,unknown,South
2022-07-02T12:00:00Z,2022,12,0,183.5,183.5,-70.5912,-7.8248,983.2,-13.0,-26.5,yes,yes,yes,300534061254930,unknown,unknown,unknown,South
2022-07-02T13:00:02Z,2022,13,0,183.5417,183.5417,-70.5912,-7.8248,982.4,-13.0,-26.0,yes,yes,yes,300534061254930,unknown,unknown,unknown,South
2022-07-02T13:59:57Z,2022,14,0,183.5833,183.5833,-70.5914,-7.8248,981.9,-13.0,-26.9,yes,yes,yes,300534061254930,unknown,unknown,unknown,South
2022-07-02T15:00:00Z,2022,15,0,183.625,183.625,-70.5914,-7.8248,981.1,-13.0,-26.1,yes,yes,yes,300534061254930,unknown,unknown,unknown,South
2022-07-02T16:00:02Z,2022,16,0,183.6667,183.6667,-70.5912,-7.8248,980.1,-12.9,-24.6,yes,yes,yes,300534061254930,unknown,unknown,unknown,South
2022-07-02T16:59:57Z,2022,17,0,183.7083,183.7083,-70.5912,-7.8248,979.1,-12.7,-22.9,yes,yes,yes,300534061254930,unknown,unknown,unknown,South
2022-07-02T18:00:00Z,2022,18,0,183.75,183.75,-70.5914,-7.8248,978.4,-12.5,-22.1,yes,yes,yes,300534061254930,unknown,unknown,unknown,South
2022-07-02T19:00:02Z,2022,19,0,183.7917,183.7917,-70.5912,-7.8248,977.7,-12.3,-20.7,yes,yes,yes,300534061254930,unknown,unknown,unknown,South